Owen Roberts, Cayman Islands

4:41 AM EST on May 24, 2017 (GMT -0500)
Roberts International

Weather History for MWCR - December, 2014

Change the Weather History Date:

Sunday, December 7, 2014

  Actual Average Record
Temperature  
Mean Temperature 80 °F -  
Max Temperature 83 °F 82 °F 87 °F (2001)
Min Temperature 76 °F 74 °F 71 °F (2000)
Cooling Degree Days 14    
Growing Degree Days 30 (Base 50)    
Moisture  
Dew Point 73 °F    
Average Humidity 81    
Maximum Humidity 94    
Minimum Humidity 66    
Precipitation  
Precipitation 0.00 in - - ()
Sea Level Pressure  
Sea Level Pressure 29.99 in    
Wind  
Wind Speed 9 mph ()    
Max Wind Speed 14 mph    
Max Gust Speed -    
Visibility 6.2 miles    
Events      
Averages and records for this station are not official NWS values.
T = Trace of Precipitation, MM = Missing Value Source: Averaged Metar Reports

Daily Weather History Graph

Daily Weather History Graph

Search for Another Location

Airport or City:

Trip Planner

Search our weather history database for the weather conditions in past years. The results will help you decide how hot, cold, wet, or windy it might be!

Date:

Astronomy

Dec. 07, 2014 Rise Set
Actual Time 6:46 AM EST 5:47 PM EST
Civil Twilight 6:22 AM EST 6:11 PM EST
Nautical Twilight 5:55 AM EST 6:38 PM EST
Astronomical Twilight 5:28 AM EST 7:05 PM EST
Moon 7:07 PM EST (12/7) 7:36 AM EST (12/7)
Length of Visible Light 11h 48m
Length of Day
11h 00m
Full, 98% of the Moon is Illuminated
Dec 7
Full
Dec 14
Last Quarter
Dec 21
New
Dec 28
First Quarter
Jan 4
Full

Hourly Weather History & Observations

Time (EST) Temp. Heat Index Dew Point Humidity Pressure Visibility Wind Dir Wind Speed Gust Speed Precip Events Conditions
6:00 AM 77.0 °F - 69.8 °F 78% 29.98 in 6.2 mi NE 10.4 mph - N/A   Partly Cloudy
7:00 AM 77 °F - 71 °F 75% 30.01 in 6 mi NNE 10.4 mph - -   Scattered Clouds
7:00 AM 77.0 °F - 69.8 °F 78% 30.01 in 6.2 mi NNE 10.4 mph - N/A   Partly Cloudy
8:00 AM 77.0 °F - 71.6 °F 83% 30.01 in 6.2 mi NNE 10.4 mph - N/A   Partly Cloudy
9:00 AM 78.8 °F - 71.6 °F 78% 30.04 in 6.2 mi NE 9.2 mph - N/A   Partly Cloudy
10:00 AM 78.8 °F - 73.4 °F 83% 30.04 in 6.2 mi NNE 10.4 mph - N/A   Mostly Cloudy
11:00 AM 80.6 °F 85.4 °F 73.4 °F 79% 30.04 in 6.2 mi NNE 10.4 mph - N/A   Mostly Cloudy
12:00 PM 80.6 °F 86.2 °F 75.2 °F 84% 30.01 in 6.2 mi NNE 11.5 mph - N/A   Scattered Clouds
1:00 PM 81 °F - 77 °F 84% 30.00 in 6 mi NNE 11.5 mph - -   Mostly Cloudy
1:00 PM 80.6 °F 87.1 °F 77.0 °F 89% 29.98 in 6.2 mi NNE 11.5 mph - N/A   Mostly Cloudy
2:00 PM 80.6 °F 88.1 °F 78.8 °F 94% 29.95 in 6.2 mi ENE 13.8 mph - N/A   Scattered Clouds
3:00 PM 80.6 °F 84.6 °F 71.6 °F 74% 29.95 in 6.2 mi NNE 10.4 mph - N/A   Partly Cloudy
3:54 PM 80.6 °F 85.4 °F 73.4 °F 79% 29.92 in 6.2 mi NNE 10.4 mph - N/A   Partly Cloudy
5:00 PM 78.8 °F - 73.4 °F 83% 29.95 in 6.2 mi NNE 10.4 mph - N/A   Partly Cloudy
6:00 PM 77.0 °F - 69.8 °F 78% 29.95 in 6.2 mi NNE 9.2 mph - N/A   Partly Cloudy
6:50 PM 77.0 °F - 71.6 °F 83% 29.95 in 6.2 mi NNE 10.4 mph - N/A   Scattered Clouds
7:00 PM 78 °F - 69 °F 66% 29.98 in 6 mi ENE 6.9 mph - -   Scattered Clouds
7:53 PM 77.0 °F - 71.6 °F 83% 29.98 in 6.2 mi NE 10.4 mph - N/A   Partly Cloudy
8:50 PM 77.0 °F - 71.6 °F 83% 29.98 in 6.2 mi NE 8.1 mph - N/A   Partly Cloudy
9:50 PM 78.8 °F - 71.6 °F 78% 29.98 in 6.2 mi NE 10.4 mph - N/A   Partly Cloudy